[[{"header":{"parameterUnit":"m.s-1","parameterCategory":1,"la1":30.2991,"la2":30.254,"lo1":-89.0895,"lo2":-89.0444,"dy":0.0017,"dx":0.0017,"nx":28,"ny":28,"refTime":"2024-08-15T03:00:00:Z","depth":0,"parameterNumber":2,"parameterNumberName":"U-component_of_WINDS"},"data":[0,0,0,0,0,0,0,0,0,0,0,0,0,0,0,0,0,0,0,0,0,0,0,0,0,0,0,0,0,0,0,0,0,0,0,0,0,0,0,0,0,0,0,0,0,0,0,0,0,0,0,0,0,0,0,0,0,0,-3.2336,-3.2336,0,-3.2352,-3.2353,-3.2353,-3.2308,-3.2306,-3.2305,-3.2303,-3.232,-3.2322,-3.2324,0,0,0,0,0,0,0,0,0,0,0,0,0,-3.2269,-3.227,-3.2336,-3.2336,-3.2337,-3.2352,-3.2353,-3.2353,-3.2308,-3.2306,-3.2304,-3.2303,-3.232,-3.2322,-3.2324,0,0,0,0,0,0,0,0,0,0,0,0,0,-3.2293,-3.227,-3.2336,-3.2316,-3.2314,-3.2352,-3.2353,-3.2353,-3.2308,-3.2306,-3.2304,-3.2302,-3.2319,-3.2322,-3.2324,-3.2382,0,0,-3.2332,-3.2333,0,0,0,0,0,0,0,0,-3.2291,-3.2295,-3.2319,-3.2318,-3.2316,-3.2326,-3.2335,-3.2363,-3.2309,-3.2311,-3.2303,-3.2301,-3.2324,-3.2326,-3.2334,-3.2383,-3.2384,-3.2332,-3.2334,-3.2335,-3.2336,0,0,0,0,0,0,0,-3.229,-3.2294,-3.2343,-3.2319,-3.2317,-3.2307,-3.2308,-3.234,-3.2329,-3.231,-3.2307,-3.231,-3.2323,-3.2331,-3.2334,-3.2384,-3.2332,-3.2335,-3.2336,-3.2337,-3.2484,-3.2486,0,0,0,0,0,0,-3.2291,-3.2293,-3.2342,-3.2343,-3.2298,-3.231,-3.2311,-3.2325,-3.2328,-3.2327,-3.2311,-3.2307,-3.2328,-3.2331,-3.2334,-3.2403,-3.2335,-3.2338,-3.2339,-3.2482,-3.2485,-3.2487,0,0,0,0,0,0,-3.2289,-3.2295,-3.2341,-3.2317,-3.2322,-3.2313,-3.2329,-3.2326,-3.2334,-3.2329,-3.2327,-3.2322,-3.2326,-3.233,-3.2371,-3.2403,-3.2339,-3.2341,-3.2479,-3.2483,-3.2486,-3.254,0,0,0,0,0,0,-3.2287,-3.2295,-3.2316,-3.2318,-3.2324,-3.2377,-3.2331,-3.2328,-3.2339,-3.2334,-3.2338,-3.2337,-3.2325,-3.2367,-3.2374,-3.2405,-3.2343,-3.2476,-3.2481,-3.2485,-3.2535,-3.2545,-3.2553,0,0,0,0,0,-3.2285,-3.2331,-3.2318,-3.2324,-3.235,-3.2379,-3.2383,-3.2367,-3.2342,-3.2364,-3.2361,-3.2337,-3.2399,-3.2372,-3.2379,-3.2411,-3.2474,-3.248,-3.2485,-3.2531,-3.2543,-3.2553,0,0,0,0,0,0,-3.2332,-3.233,-3.2316,-3.2363,-3.2372,-3.2372,-3.2398,-3.238,-3.2396,-3.2391,-3.2372,-3.2373,-3.2417,-3.2419,-3.2389,-3.2469,-3.2432,-3.2439,-3.2466,-3.2477,-3.2485,-3.2483,-3.2345,0,0,0,0,0,-3.2348,-3.2371,-3.2369,-3.2411,-3.2416,-3.2407,-3.2419,-3.2407,-3.2415,-3.2418,-3.2418,-3.2427,-3.2449,-3.2463,-3.2483,-3.2537,-3.2537,-3.2563,-3.2572,-3.2579,-3.2584,-3.2614,-3.2625,-3.2505,-3.2504,-3.2504,0,0,-3.238,-3.2383,-3.2398,-3.242,-3.2426,-3.2451,-3.241,-3.2438,-3.2457,-3.2423,-3.246,-3.2462,-3.2471,-3.2519,-3.254,-3.2521,-3.2619,-3.2586,-3.2592,-3.2593,-3.2621,-3.2632,-3.2642,-3.2508,-3.2507,-3.2507,0,0,-3.2452,-3.2457,-3.2492,-3.2499,-3.2508,-3.2502,-3.2511,-3.2515,-3.2514,-3.2552,-3.2528,-3.2551,-3.2588,-3.2596,-3.2605,-3.2684,-3.2663,-3.2691,-3.2737,-3.2766,-3.2775,-3.2784,-3.2811,-3.2822,-3.2697,-3.2698,-3.2698,0,-3.2491,-3.2528,-3.2513,-3.2543,-3.2554,-3.2526,-3.2562,-3.257,-3.2585,-3.2594,-3.2573,-3.2621,-3.2625,-3.2675,-3.2694,-3.2703,-3.2713,-3.2689,-3.2775,-3.2783,-3.2791,-3.2817,-3.2828,-3.2701,-3.27,-3.27,-3.27,0,-3.2576,-3.2602,-3.263,-3.2646,-3.266,-3.2693,-3.2684,-3.2701,-3.2689,-3.2686,-3.2727,-3.2731,-3.2752,-3.2763,-3.2752,-3.2812,-3.28,-3.2778,-3.274,-3.2806,-3.283,-3.284,-3.2705,-3.2704,-3.2703,-3.2702,0,0,-3.2673,-3.2683,-3.2693,-3.2701,-3.271,-3.2731,-3.2764,-3.2785,-3.2799,-3.2812,-3.284,-3.2874,-3.2854,-3.2864,-3.2854,-3.288,-3.2942,-3.2854,-3.2854,-3.2869,-3.301,-3.3025,-3.3036,-3.293,-3.2932,-3.2933,-3.3008,0,-3.2743,-3.2799,-3.2789,-3.2844,-3.2868,-3.2844,-3.2873,-3.2883,-3.2882,-3.2903,-3.2903,-3.2927,-3.2899,-3.2905,-3.293,-3.2929,-3.297,-3.2924,-3.2955,-3.2956,-3.2951,-3.3049,-3.3065,-3.3135,-3.3018,-3.3019,-3.3021,0,-3.2831,-3.2848,-3.2906,-3.2914,-3.2923,-3.295,-3.2969,-3.299,-3.3001,-3.2999,-3.3012,-3.2998,-3.3032,-3.2997,-3.3044,-3.3013,-3.3026,-3.3028,-3.3031,-3.3031,-3.299,-3.3051,-3.3157,-3.3167,-3.3036,-3.3034,-3.3033,0,-3.2896,-3.2933,-3.2972,-3.298,-3.299,-3.3009,-3.3015,-3.3024,-3.3038,-3.3056,-3.3064,-3.3086,-3.3097,-3.3115,-3.3107,-3.3082,-3.3156,-3.312,-3.3155,-3.3155,-3.3169,-3.3168,-3.3277,-3.3181,-3.3181,-3.318,-3.318,0,-3.2974,-3.301,-3.3002,-3.3026,-3.3066,-3.3055,-3.3095,-3.3098,-3.3107,-3.3132,-3.3114,-3.3138,-3.3127,-3.3151,-3.3146,-3.3186,-3.3191,-3.319,-3.3188,-3.3191,-3.3191,-3.3197,-3.3191,-3.3183,-3.3183,-3.3182,-3.3182,0,-3.3051,-3.3047,-3.3088,-3.3096,-3.3099,-3.3128,-3.3134,-3.3158,-3.3157,-3.3189,-3.3196,-3.3194,-3.3221,-3.3217,-3.3246,-3.3243,-3.3293,-3.3286,-3.3289,-3.3286,-3.3321,-3.3318,-3.3437,-3.3452,-3.3347,-3.3348,-3.3349,0,-3.3099,-3.3127,-3.3138,-3.3153,-3.316,-3.3185,-3.32,-3.3191,-3.3207,-3.3224,-3.3246,-3.3272,-3.3291,-3.3336,-3.3338,-3.3362,-3.3354,-3.3394,-3.3357,-3.3359,-3.3353,-3.335,-3.3353,-3.34,-3.3402,-3.3403,-3.3403,0,-3.3186,-3.3184,-3.3205,-3.3227,-3.3245,-3.3262,-3.3276,-3.329,-3.3283,-3.3303,-3.333,-3.3346,-3.3378,-3.3404,-3.3426,-3.3432,-3.3417,-3.3416,-3.3425,-3.3426,-3.3427,-3.3426,-3.3307,-3.3412,-3.3411,-3.3411,-3.341,-3.341,-3.325,-3.3273,-3.3285,-3.331,-3.3321,-3.3336,-3.3359,-3.3362,-3.3384,-3.3409,-3.3404,-3.3435,-3.3449,-3.3477,-3.3487,-3.3512,-3.3497,-3.351,-3.3513,-3.3516,-3.352,-3.3425,-3.3516,-3.3516,-3.3516,-3.3516,-3.3516,0,-3.3335,-3.3342,-3.3366,-3.3387,-3.3408,-3.3393,-3.341,-3.3428,-3.3456,-3.347,-3.349,-3.3523,-3.3549,-3.3555,-3.358,-3.3599,-3.3593,-3.3606,-3.3603,-3.3605,-3.3533,-3.3521,-3.3611,-3.3611,-3.3611,-3.3611,-3.3611,-3.3611,-3.3381,-3.342,-3.342,-3.3465,-3.3472,-3.3503,-3.3514,-3.3528,-3.3539,-3.3577,-3.3599,-3.3603,-3.3614,-3.364,-3.3664,-3.3665,-3.3674,-3.369,-3.3688,-3.362,-3.361,-3.3601,-3.359,-3.3692,-3.3693,-3.3758,-3.3759,-3.3759]},{"header":{"parameterUnit":"m.s-1","parameterCategory":1,"la1":30.2991,"la2":30.254,"lo1":-89.0895,"lo2":-89.0444,"dy":0.0017,"dx":0.0017,"nx":28,"ny":28,"refTime":"2024-08-15T03:00:00:Z","depth":0,"parameterNumber":3,"parameterNumberName":"V-component_of_WINDS"},"data":[0,0,0,0,0,0,0,0,0,0,0,0,0,0,0,0,0,0,0,0,0,0,0,0,0,0,0,0,0,0,0,0,0,0,0,0,0,0,0,0,0,0,0,0,0,0,0,0,0,0,0,0,0,0,0,0,0,0,3.4607,3.4607,0,3.4632,3.4632,3.4632,3.4699,3.47,3.4701,3.4703,3.4724,3.4723,3.4722,0,0,0,0,0,0,0,0,0,0,0,0,0,3.4612,3.4612,3.4607,3.4607,3.4607,3.4632,3.4632,3.4632,3.4698,3.47,3.4702,3.4704,3.4724,3.4723,3.4722,0,0,0,0,0,0,0,0,0,0,0,0,0,3.462,3.4611,3.4606,3.4643,3.4647,3.4632,3.4632,3.4632,3.4698,3.47,3.4702,3.4704,3.4724,3.4723,3.4722,3.4672,0,0,3.4718,3.4718,0,0,0,0,0,0,0,0,3.462,3.462,3.4637,3.4641,3.4645,3.4664,3.4642,3.4645,3.4697,3.4678,3.4703,3.4705,3.4702,3.4703,3.4703,3.4673,3.4674,3.4718,3.4718,3.4717,3.4717,0,0,0,0,0,0,0,3.4619,3.4619,3.4616,3.4638,3.4642,3.4657,3.4661,3.4643,3.4678,3.468,3.4685,3.4687,3.4704,3.4703,3.4703,3.4674,3.4718,3.4717,3.4717,3.4716,3.4604,3.4602,0,0,0,0,0,0,3.4614,3.4619,3.4616,3.4617,3.4637,3.4655,3.4659,3.4656,3.4678,3.4684,3.4686,3.469,3.4704,3.4705,3.4704,3.4647,3.4717,3.4716,3.4715,3.4607,3.4604,3.4601,0,0,0,0,0,0,3.4614,3.4613,3.4615,3.4619,3.4621,3.4653,3.4648,3.4655,3.4655,3.4682,3.4688,3.4679,3.4706,3.4706,3.468,3.4649,3.4715,3.4714,3.4609,3.4606,3.4603,3.4532,0,0,0,0,0,0,3.4614,3.4613,3.4595,3.4618,3.462,3.459,3.4646,3.4654,3.4653,3.4659,3.4677,3.4682,3.4708,3.4681,3.4679,3.4648,3.4713,3.4612,3.4608,3.4604,3.4537,3.4526,3.4517,0,0,0,0,0,3.4614,3.4573,3.4593,3.4593,3.4599,3.4588,3.4589,3.4621,3.465,3.4632,3.465,3.4682,3.4653,3.4678,3.4676,3.4644,3.4614,3.4609,3.4604,3.4541,3.4528,3.4517,0,0,0,0,0,0,3.4542,3.4576,3.46,3.4565,3.4574,3.46,3.4577,3.4606,3.4605,3.4611,3.4649,3.4652,3.4621,3.463,3.4657,3.4597,3.4639,3.4633,3.4592,3.458,3.457,3.4568,3.4712,0,0,0,0,0,3.4523,3.4513,3.4543,3.451,3.4513,3.4544,3.4541,3.4565,3.4574,3.4578,3.4594,3.46,3.4593,3.4587,3.4582,3.4539,3.4544,3.4517,3.4507,3.4499,3.4492,3.447,3.4459,3.4585,3.4585,3.4585,0,0,3.4482,3.4499,3.4491,3.4496,3.4505,3.4493,3.4547,3.4531,3.4522,3.4575,3.4551,3.4563,3.4573,3.4539,3.4524,3.4545,3.4459,3.4492,3.4485,3.4484,3.4464,3.4452,3.4441,3.4581,3.4582,3.4582,0,0,3.4401,3.4414,3.4388,3.4396,3.4411,3.4432,3.4426,3.4448,3.4458,3.4436,3.4475,3.4464,3.4451,3.4456,3.4457,3.438,3.4409,3.4377,3.4325,3.4303,3.4293,3.4284,3.4256,3.4246,3.4371,3.4371,3.4371,0,3.4348,3.4333,3.437,3.4353,3.4354,3.4403,3.4376,3.4382,3.4393,3.4392,3.4416,3.4401,3.4411,3.4378,3.436,3.4359,3.4352,3.4375,3.4292,3.4284,3.4276,3.4249,3.4239,3.4367,3.4368,3.4368,3.4369,0,3.4267,3.4255,3.4232,3.4244,3.4242,3.422,3.4252,3.4246,3.4271,3.4289,3.4265,3.428,3.4278,3.4272,3.4295,3.4243,3.4256,3.4285,3.4328,3.4259,3.4235,3.4225,3.4361,3.4363,3.4364,3.4365,0,0,3.414,3.4174,3.4164,3.417,3.419,3.4181,3.4161,3.4162,3.4155,3.4161,3.4145,3.4133,3.4161,3.4162,3.4186,3.4167,3.4104,3.4199,3.42,3.418,3.4047,3.4023,3.4011,3.4125,3.4123,3.4121,3.4046,0,3.4063,3.4033,3.4066,3.4027,3.4017,3.4064,3.4047,3.4056,3.4073,3.4066,3.4084,3.4075,3.4113,3.4114,3.4098,3.4115,3.4078,3.4122,3.4108,3.4107,3.4103,3.3999,3.3974,3.3902,3.4037,3.4035,3.4034,0,3.397,3.3973,3.3934,3.3957,3.3954,3.3938,3.3941,3.3934,3.3946,3.396,3.3961,3.3991,3.3972,3.4015,3.3988,3.4017,3.4014,3.4022,3.402,3.4019,3.4065,3.3994,3.388,3.3868,3.4019,3.402,3.4022,0,3.3881,3.3876,3.3852,3.3855,3.3882,3.3869,3.3879,3.3893,3.3891,3.3894,3.3893,3.3893,3.3892,3.389,3.3919,3.3948,3.3889,3.3934,3.3898,3.3898,3.3883,3.3883,3.3765,3.3882,3.3882,3.3882,3.3883,0,3.3791,3.3765,3.3812,3.3797,3.3769,3.3808,3.3779,3.3793,3.3806,3.3794,3.3834,3.3822,3.3861,3.3852,3.3875,3.3849,3.3849,3.3858,3.3864,3.3854,3.3853,3.3851,3.3857,3.388,3.388,3.3881,3.3881,0,3.3686,3.3717,3.3694,3.3721,3.3728,3.3706,3.3729,3.3715,3.3736,3.372,3.3718,3.375,3.3742,3.3771,3.3767,3.3782,3.3744,3.3759,3.3741,3.3745,3.3708,3.371,3.3584,3.3569,3.3696,3.3695,3.3694,0,3.3626,3.3608,3.3634,3.363,3.3638,3.363,3.3629,3.3667,3.3663,3.3676,3.3661,3.3657,3.3655,3.364,3.3662,3.3659,3.3674,3.363,3.3673,3.3664,3.3672,3.3672,3.367,3.362,3.3618,3.3617,3.3616,0,3.3517,3.3534,3.3531,3.3534,3.3532,3.3536,3.3543,3.3536,3.3576,3.3571,3.3564,3.3563,3.3561,3.3555,3.3558,3.3567,3.3597,3.3602,3.3594,3.3583,3.3573,3.3577,3.3715,3.3605,3.3606,3.3607,3.3607,3.3608,3.3433,3.3418,3.3435,3.3431,3.344,3.3445,3.3434,3.3454,3.345,3.3452,3.3474,3.3462,3.3475,3.3481,3.3488,3.3479,3.3499,3.3487,3.3484,3.348,3.3473,3.3575,3.3479,3.348,3.348,3.348,3.348,0,3.3325,3.3338,3.3334,3.3343,3.334,3.3371,3.338,3.3375,3.3365,3.3375,3.3373,3.3365,3.3361,3.3383,3.3381,3.3369,3.3383,3.3368,3.3368,3.337,3.3455,3.3462,3.3356,3.3356,3.3356,3.3356,3.3357,3.3357,3.3268,3.3246,3.3264,3.3246,3.326,3.325,3.3253,3.3257,3.3266,3.3256,3.3253,3.3268,3.3282,3.3282,3.3279,3.3285,3.3282,3.3262,3.3272,3.3352,3.3364,3.3375,3.3382,3.3261,3.3261,3.3188,3.3187,3.3186]}]]